When you browse on this site, cookies collect data to enhance your experience and personalize the content and advertising you see.
Visit our Privacy Policy to learn more. By continuing to use the site, you agree to this use of cookies and data.

Hourly Weather Lambaréné

Today, 14 July, Tuesday

Time Temperature Precipitation Wind Pressure Humidity
00:00 +24°C° 0 mm 2 mps 754 mmHg 87%
01:00 +24°C° 0 mm 2 mps 754 mmHg 89%
02:00 +24°C° 0 mm 2 mps 754 mmHg 89%
03:00 +24°C° 0 mm 2 mps 754 mmHg 88%
04:00 +24°C° 0 mm 2 mps 754 mmHg 87%
05:00 +24°C° 0 mm 2 mps 754 mmHg 87%
06:00 +24°C° 0 mm 1 mps 754 mmHg 87%
07:00 +24°C° 0 mm 1 mps 754 mmHg 87%
08:00 +24°C° 0 mm 1 mps 755 mmHg 85%
09:00 +25°C° 0 mm 1 mps 755 mmHg 83%
10:00 +25°C° 0 mm 1 mps 755 mmHg 81%
11:00 +26°C° 0 mm 1 mps 754 mmHg 77%
12:00 +27°C° 0 mm 1 mps 754 mmHg 74%
13:00 +28°C° 0 mm 2 mps 754 mmHg 71%
14:00 +27°C° 0 mm 2 mps 753 mmHg 73%
15:00 +27°C° 0 mm 2 mps 753 mmHg 74%
16:00 +27°C° 0 mm 2 mps 752 mmHg 76%
17:00 +26°C° 0 mm 2 mps 752 mmHg 79%
18:00 +26°C° 0 mm 2 mps 753 mmHg 82%
19:00 +25°C° 0 mm 2 mps 754 mmHg 86%
20:00 +25°C° 0 mm 2 mps 754 mmHg 86%
21:00 +25°C° 0 mm 2 mps 754 mmHg 86%
22:00 +24°C° 0 mm 2 mps 755 mmHg 86%
23:00 +24°C° 0 mm 1 mps 755 mmHg 88%

Tomorrow, 15 July, Wednesday

Time Temperature Precipitation Wind Pressure Humidity
00:00 +23°C° 0 mm 1 mps 755 mmHg 90%
01:00 +23°C° 0 mm 1 mps 755 mmHg 92%
02:00 +22°C° 0 mm 1 mps 754 mmHg 93%
03:00 +22°C° 0 mm 1 mps 754 mmHg 94%
04:00 +20°C° 0 mm 0 mps 754 mmHg 95%
05:00 +20°C° 0 mm 0 mps 754 mmHg 94%
06:00 +20°C° 0 mm 0 mps 755 mmHg 93%
07:00 +21°C° 0 mm 0 mps 755 mmHg 92%
08:00 +22°C° 0 mm 0 mps 755 mmHg 85%
09:00 +26°C° 0 mm 1 mps 756 mmHg 77%
10:00 +27°C° 0 mm 1 mps 756 mmHg 70%
11:00 +28°C° 0 mm 1 mps 756 mmHg 66%
12:00 +29°C° 0 mm 1 mps 755 mmHg 63%
13:00 +30°C° 0 mm 1 mps 755 mmHg 59%
14:00 +30°C° 0 mm 1 mps 754 mmHg 61%
15:00 +30°C° 0 mm 1 mps 754 mmHg 62%
16:00 +29°C° 0 mm 1 mps 753 mmHg 64%
17:00 +28°C° 0 mm 1 mps 753 mmHg 68%
18:00 +27°C° 0 mm 2 mps 754 mmHg 72%
19:00 +26°C° 0 mm 2 mps 754 mmHg 76%
20:00 +26°C° 0 mm 2 mps 755 mmHg 79%
21:00 +25°C° 0 mm 2 mps 755 mmHg 81%
22:00 +25°C° 0 mm 2 mps 756 mmHg 83%
23:00 +24°C° 0 mm 2 mps 756 mmHg 84%

Day after tomorrow, 16 July, Thursday

Time Temperature Precipitation Wind Pressure Humidity
00:00 +24°C° 0 mm 1 mps 756 mmHg 86%
01:00 +23°C° 0 mm 1 mps 756 mmHg 88%
02:00 +23°C° 0 mm 1 mps 755 mmHg 89%
03:00 +23°C° 0 mm 1 mps 755 mmHg 90%
04:00 +23°C° 0 mm 1 mps 754 mmHg 91%
05:00 +21°C° 0 mm 0 mps 755 mmHg 90%
06:00 +21°C° 0 mm 0 mps 755 mmHg 90%
07:00 +21°C° 0 mm 0 mps 756 mmHg 90%
08:00 +23°C° 0 mm 0 mps 756 mmHg 81%
09:00 +25°C° 0 mm 0 mps 756 mmHg 72%
10:00 +27°C° 0 mm 0 mps 756 mmHg 63%
11:00 +31°C° 0 mm 1 mps 756 mmHg 59%
12:00 +32°C° 0 mm 1 mps 755 mmHg 54%
13:00 +33°C° 0 mm 1 mps 755 mmHg 50%
14:00 +33°C° 0 mm 1 mps 754 mmHg 52%
15:00 +32°C° 0 mm 1 mps 753 mmHg 54%
16:00 +32°C° 0 mm 1 mps 753 mmHg 56%
17:00 +30°C° 0.1 mm 2 mps 753 mmHg 63%
18:00 +29°C° 0.1 mm 2 mps 754 mmHg 71%
19:00 +27°C° 0.1 mm 2 mps 754 mmHg 78%
20:00 +26°C° 0.1 mm 2 mps 755 mmHg 80%
21:00 +26°C° 0.1 mm 2 mps 756 mmHg 83%
22:00 +25°C° 0.1 mm 2 mps 756 mmHg 85%
23:00 +25°C° 0.2 mm 2 mps 756 mmHg 87%

17 July, Friday

Time Temperature Precipitation Wind Pressure Humidity
00:00 +24°C° 0.2 mm 2 mps 756 mmHg 88%
01:00 +24°C° 0.2 mm 2 mps 756 mmHg 90%
02:00 +24°C° 0.1 mm 2 mps 756 mmHg 90%
03:00 +24°C° 0.1 mm 1 mps 755 mmHg 90%
04:00 +24°C° 0.1 mm 1 mps 755 mmHg 91%
05:00 +24°C° 0 mm 1 mps 755 mmHg 91%
06:00 +24°C° 0 mm 1 mps 755 mmHg 91%
07:00 +22°C° 0 mm 0 mps 756 mmHg 91%
08:00 +22°C° 0 mm 0 mps 756 mmHg 87%
09:00 +23°C° 0 mm 0 mps 756 mmHg 83%
10:00 +24°C° 0 mm 0 mps 756 mmHg 80%
11:00 +27°C° 0 mm 1 mps 756 mmHg 76%
12:00 +28°C° 0 mm 1 mps 755 mmHg 72%
13:00 +29°C° 0 mm 1 mps 755 mmHg 68%
14:00 +29°C° 0.1 mm 1 mps 754 mmHg 68%
15:00 +29°C° 0.1 mm 2 mps 754 mmHg 68%
16:00 +29°C° 0.1 mm 2 mps 753 mmHg 67%
17:00 +28°C° 0.6 mm 2 mps 754 mmHg 74%
18:00 +27°C° 0.6 mm 2 mps 754 mmHg 80%
19:00 +25°C° 0.6 mm 1 mps 755 mmHg 86%
20:00 +25°C° 0.3 mm 2 mps 755 mmHg 87%
21:00 +25°C° 0.3 mm 2 mps 756 mmHg 88%
22:00 +25°C° 0.3 mm 2 mps 756 mmHg 89%
23:00 +24°C° 0 mm 2 mps 756 mmHg 90%

18 July, Saturday

Time Temperature Precipitation Wind Pressure Humidity
00:00 +24°C° 0 mm 2 mps 756 mmHg 91%
01:00 +24°C° 0 mm 1 mps 756 mmHg 91%
02:00 +23°C° 0 mm 1 mps 755 mmHg 92%
03:00 +23°C° 0 mm 1 mps 755 mmHg 93%
04:00 +23°C° 0 mm 1 mps 755 mmHg 94%
05:00 +23°C° 0 mm 1 mps 755 mmHg 93%
06:00 +23°C° 0 mm 1 mps 755 mmHg 93%
07:00 +21°C° 0 mm 0 mps 756 mmHg 92%
08:00 +22°C° 0 mm 0 mps 756 mmHg 89%
09:00 +23°C° 0 mm 0 mps 756 mmHg 85%
10:00 +23°C° 0 mm 0 mps 756 mmHg 82%
11:00 +25°C° 0 mm 0 mps 756 mmHg 75%
12:00 +28°C° 0 mm 1 mps 755 mmHg 69%
13:00 +30°C° 0 mm 1 mps 755 mmHg 62%
14:00 +30°C° 0 mm 1 mps 754 mmHg 62%
15:00 +30°C° 0 mm 1 mps 754 mmHg 61%
16:00 +30°C° 0 mm 1 mps 753 mmHg 61%
17:00 +29°C° 0.1 mm 1 mps 753 mmHg 66%
18:00 +27°C° 0.1 mm 1 mps 754 mmHg 71%
19:00 +26°C° 0.1 mm 1 mps 754 mmHg 76%
20:00 +25°C° 0 mm 1 mps 755 mmHg 79%
21:00 +25°C° 0 mm 2 mps 755 mmHg 82%
22:00 +24°C° 0 mm 2 mps 756 mmHg 85%
23:00 +24°C° 0 mm 2 mps 756 mmHg 87%

19 July, Sunday

Time Temperature Precipitation Wind Pressure Humidity
00:00 +24°C° 0 mm 2 mps 756 mmHg 89%
01:00 +23°C° 0 mm 1 mps 755 mmHg 91%
02:00 +23°C° 0 mm 1 mps 755 mmHg 90%
03:00 +23°C° 0 mm 1 mps 755 mmHg 89%
04:00 +23°C° 0 mm 1 mps 755 mmHg 89%
05:00 +23°C° 0 mm 1 mps 755 mmHg 88%
06:00 +22°C° 0 mm 0 mps 755 mmHg 87%
07:00 +22°C° 0 mm 0 mps 755 mmHg 86%
08:00 +23°C° 0 mm 0 mps 756 mmHg 78%
09:00 +25°C° 0 mm 0 mps 756 mmHg 71%
10:00 +27°C° 0 mm 0 mps 756 mmHg 63%
11:00 +30°C° 0 mm 1 mps 755 mmHg 58%
12:00 +31°C° 0 mm 1 mps 754 mmHg 52%
13:00 +33°C° 0 mm 1 mps 754 mmHg 47%
14:00 +33°C° 0 mm 1 mps 753 mmHg 47%
15:00 +33°C° 0 mm 1 mps 753 mmHg 46%
16:00 +33°C° 0 mm 1 mps 752 mmHg 46%
17:00 +32°C° 0 mm 1 mps 752 mmHg 52%
18:00 +30°C° 0 mm 1 mps 753 mmHg 59%
19:00 +28°C° 0 mm 2 mps 753 mmHg 65%
20:00 +27°C° 0 mm 2 mps 753 mmHg 70%
21:00 +26°C° 0 mm 2 mps 754 mmHg 75%
22:00 +25°C° 0 mm 2 mps 755 mmHg 80%
23:00 +25°C° 0 mm 2 mps 755 mmHg 82%
Show more